Detroit, MI

8:29 PM EST on December 05, 2016 (GMT -0500)
Detroit Metro Wayne County

Weather History for KDTW - July, 2012

Change the Weather History Date:

Wednesday, July 4, 2012

  Actual Average Record
Temperature  
Mean Temperature 87 °F 73 °F  
Max Temperature 102 °F 83 °F 102 °F (2012)
Min Temperature 71 °F 64 °F 49 °F (1972)
Degree Days  
Heating Degree Days 0 0  
Month to date heating degree days 0 0  
Since 1 June heating degree days 19 35  
Since 1 July heating degree days 0 0  
Cooling Degree Days 22 9  
Month to date cooling degree days 67 33  
Year to date cooling degree days 428 248  
Since 1 June cooling degree days 311 200  
Growing Degree Days 36 (Base 50)    
Moisture  
Dew Point 68 °F    
Average Humidity 62    
Maximum Humidity 90    
Minimum Humidity 33    
Precipitation  
Precipitation 0.00 in 0.10 in 2.38 in (1969)
Month to date precipitation 0.41 0.41  
Year to date precipitation 13.45 16.47  
Snow  
Snow 0.00 in 0.00 in 0.00 in ()
Month to date snowfall 0.0 0.0  
Since 1 June snowfall 0.0 0.0  
Since 1 July snowfall 0.0 0.0  
Snow Depth 0.00 in    
Sea Level Pressure  
Sea Level Pressure 29.84 in    
Wind  
Wind Speed 8 mph (SW)    
Max Wind Speed 21 mph    
Max Gust Speed 36 mph    
Visibility 7 miles    
Events Rain , Thunderstorm    
T = Trace of Precipitation, MM = Missing Value Source: NWS Daily Summary

Daily Weather History Graph

Daily Weather History Graph

Search for Another Location

Airport or City:

Trip Planner

Search our weather history database for the weather conditions in past years. The results will help you decide how hot, cold, wet, or windy it might be!

Date:

Astronomy

Jul. 04, 2012 Rise Set
Actual Time 6:02 AM EDT 9:12 PM EDT
Civil Twilight 5:28 AM EDT 9:46 PM EDT
Nautical Twilight 4:44 AM EDT 10:30 PM EDT
Astronomical Twilight 3:51 AM EDT 11:23 PM EDT
Moon 9:48 PM EDT (7/4) 7:05 AM EDT (7/4)
Length of Visible Light 16h 18m
Length of Day
15h 10m
Full, 99% of the Moon is Illuminated
Jul 4
Full
Jul 10
Last Quarter
Jul 19
New
Jul 26
First Quarter
Aug 1
Full

Hourly Weather History & Observations

Time (EDT) Temp. Heat Index Dew Point Humidity Pressure Visibility Wind Dir Wind Speed Gust Speed Precip Events Conditions
12:53 AM 72.0 °F - 68.0 °F 87% 29.85 in 4.0 mi South 3.5 mph - N/A   Partly Cloudy
1:31 AM 71.6 °F - 69.8 °F 94% 29.87 in 2.5 mi SSE 3.5 mph - N/A   Scattered Clouds
1:53 AM 72.0 °F - 68.0 °F 87% 29.85 in 2.5 mi Calm Calm - N/A   Scattered Clouds
2:01 AM 71.6 °F - 68.0 °F 88% 29.86 in 3.0 mi South 3.5 mph - N/A   Scattered Clouds
2:53 AM 72.0 °F - 68.0 °F 87% 29.85 in 3.0 mi South 3.5 mph - N/A   Scattered Clouds
3:53 AM 71.1 °F - 68.0 °F 90% 29.84 in 3.0 mi Calm Calm - N/A   Scattered Clouds
4:53 AM 72.0 °F - 68.0 °F 87% 29.83 in 3.0 mi SSW 4.6 mph - N/A   Scattered Clouds
5:53 AM 73.0 °F - 68.0 °F 84% 29.85 in 3.0 mi SSW 4.6 mph - N/A   Haze
6:53 AM 73.0 °F - 69.1 °F 87% 29.86 in 3.0 mi SSW 5.8 mph - N/A   Mostly Cloudy
7:53 AM 78.1 °F - 70.0 °F 76% 29.86 in 4.0 mi SSW 4.6 mph - N/A   Haze
8:53 AM 82.9 °F 88.0 °F 72.0 °F 69% 29.85 in 7.0 mi SSW 8.1 mph - N/A   Scattered Clouds
9:53 AM 88.0 °F 95.6 °F 73.0 °F 61% 29.86 in 8.0 mi SW 9.2 mph - N/A   Mostly Cloudy
10:53 AM 90.0 °F 99.0 °F 73.9 °F 59% 29.88 in 8.0 mi SW 9.2 mph - N/A   Mostly Cloudy
11:53 AM 93.0 °F 100.7 °F 72.0 °F 50% 29.86 in 9.0 mi SW 10.4 mph - N/A   Scattered Clouds
12:53 PM 96.1 °F 104.9 °F 72.0 °F 46% 29.84 in 10.0 mi WSW 11.5 mph 18.4 mph N/A   Scattered Clouds
1:53 PM 96.1 °F 101.6 °F 69.1 °F 41% 29.82 in 10.0 mi WSW 11.5 mph 21.9 mph N/A   Scattered Clouds
2:53 PM 99.0 °F 105.5 °F 69.1 °F 38% 29.81 in 10.0 mi WSW 15.0 mph - N/A   Scattered Clouds
3:53 PM 100.9 °F 108.2 °F 69.1 °F 36% 29.81 in 10.0 mi West 11.5 mph - N/A   Scattered Clouds
4:53 PM 100.9 °F 106.7 °F 68.0 °F 34% 29.80 in 10.0 mi West 12.7 mph 20.7 mph N/A   Scattered Clouds
5:53 PM 100.4 °F 104.9 °F 66.2 °F 33% 29.80 in 10.0 mi West 11.5 mph - N/A   Scattered Clouds
6:53 PM 97.0 °F 99.9 °F 64.9 °F 35% 29.80 in 10.0 mi West 10.4 mph - N/A   Mostly Cloudy
7:37 PM 82.4 °F 83.9 °F 64.4 °F 54% 29.88 in 9.0 mi ENE 18.4 mph 35.7 mph N/A   Mostly Cloudy
7:46 PM 80.6 °F 81.8 °F 62.6 °F 54% 29.88 in 9.0 mi ENE 13.8 mph 27.6 mph N/A Thunderstorm Thunderstorm
7:53 PM 80.1 °F 81.7 °F 64.0 °F 58% 29.87 in 10.0 mi ENE 16.1 mph 23.0 mph N/A Thunderstorm Thunderstorm
8:09 PM 80.6 °F 82.7 °F 66.2 °F 61% 29.87 in 10.0 mi ENE 10.4 mph - N/A   Mostly Cloudy
8:53 PM 82.0 °F 84.1 °F 66.0 °F 58% 29.82 in 10.0 mi WSW 3.5 mph - N/A   Mostly Cloudy
9:53 PM 82.0 °F 84.5 °F 66.9 °F 60% 29.81 in 10.0 mi West 9.2 mph - N/A   Scattered Clouds
10:53 PM 80.1 °F 82.1 °F 66.0 °F 62% 29.81 in 10.0 mi West 3.5 mph - N/A   Scattered Clouds
11:53 PM 80.1 °F 82.3 °F 66.9 °F 64% 29.85 in 7.0 mi South 4.6 mph - N/A   Partly Cloudy